EW4462 Weather Reports


Display with metric or nautical units.
time (UTC)temp
F
wind
direction
speed
MPH
gust
MPH
rain 1hr
in
rain 24hr
in
rain mn
in
humidity
%
barometer
mb
20260505054545 60 159 0.0 0.0 0.00 0.00 0.00 83 1016.2
20260505053543 60 159 0.0 0.0 0.00 0.00 0.00 83 1016.2
20260505052516 61 68 0.0 0.0 0.00 0.00 0.00 82 1016.3
20260505051445 61 94 0.0 0.0 0.00 0.00 0.00 81 1016.5
20260505050419 61 111 0.0 1.0 0.00 0.00 0.00 81 1016.4
20260505041155 62 107 0.0 0.0 0.00 0.00 0.00 77 1016.3
20260505040119 62 89 0.0 0.0 0.00 0.00 0.00 73 1016.2
20260505035128 62 91 0.0 0.0 0.00 0.00 0.00 74 1016.2
20260505034147 62 105 0.0 0.0 0.00 0.00 0.00 74 1016.1
20260505033114 62 105 0.0 0.0 0.00 0.00 0.00 75 1016.1
20260505032052 62 138 0.0 2.0 0.00 0.00 0.00 75 1016.1
20260505031109 62 161 0.0 0.0 0.00 0.00 0.00 75 1015.8
20260505022631 63 107 0.0 0.0 0.00 0.00 0.00 74 1015.8
20260505021608 63 157 0.0 1.0 0.00 0.00 0.00 74 1015.8
20260505020557 64 118 0.0 1.0 0.00 0.00 0.00 74 1015.9
20260505014406 64 85 0.0 0.0 0.00 0.00 0.00 72 1015.9
20260505013336 65 95 0.0 0.0 0.00 0.00 0.00 72 1016.1
20260505012332 65 98 0.0 0.0 0.00 0.00 0.00 70 1015.9
20260505010232 66 122 0.0 0.0 0.00 0.00 0.00 69 1016.1
20260505005230 67 128 0.0 0.0 0.00 0.00 0.00 67 1016.2
20260505004205 67 159 0.0 1.0 0.00 0.00 0.00 66 1016.1
20260505003132 67 91 0.0 0.0 0.00 0.00 0.00 66 1016.3
20260505000913 68 94 0.0 10.0 0.00 0.00 0.00 64 1016.2
20260504235929 68 85 0.0 0.0 0.00 0.00 0.00 62 1016.3
20260504233759 67 141 0.0 0.0 0.00 0.00 0.00 63 1016.3
20260504232759 67 129 0.0 9.0 0.00 0.00 0.00 64 1016.3
20260504231753 68 82 0.0 1.0 0.00 0.00 0.00 61 1016.3
20260504230750 69 146 0.0 1.0 0.00 0.00 0.00 60 1016.2
20260504223436 69 108 0.0 9.0 0.00 0.00 0.00 57 1016.3
20260504222413 70 121 0.0 0.0 0.00 0.00 0.00 59 1016.4
20260504221427 70 74 0.0 0.0 0.00 0.00 0.00 60 1016.5
20260504220435 70 115 0.0 0.0 0.00 0.00 0.00 55 1016.7
20260504215407 69 117 0.0 2.0 0.00 0.00 0.00 58 1016.7
20260504214425 70 105 0.0 2.0 0.00 0.00 0.00 58 1016.7
20260504212319 70 116 0.0 0.0 0.00 0.00 0.00 53 1016.9
20260504205044 69 148 0.0 6.0 0.00 0.00 0.00 55 1017.1
20260504203005 69 115 0.0 1.0 0.00 0.00 0.00 57 1017.0
20260504193326 68 115 0.0 1.0 0.00 0.00 0.00 61 1017.0
20260504192259 68 134 0.0 0.0 0.00 0.00 0.00 61 1017.3
20260504191301 68 155 0.0 0.0 0.00 0.00 0.00 60 1017.3
20260504190320 67 76 0.0 0.0 0.00 0.00 0.00 60 1017.4
20260504185341 67 93 0.0 0.0 0.00 0.00 0.00 61 1017.5
20260504184351 68 99 0.0 7.0 0.00 0.00 0.00 60 1017.7
20260504182206 67 116 0.0 0.0 0.00 0.00 0.00 64 1017.5
20260504181200 66 89 0.0 0.0 0.00 0.00 0.00 65 1017.5
20260504175041 66 144 0.0 2.0 0.00 0.00 0.00 67 1017.4
20260504171656 64 112 0.0 4.0 0.00 0.00 0.00 70 1017.1
20260504170654 64 103 0.0 3.0 0.00 0.00 0.00 67 1016.9
20260504160425 63 101 0.0 0.0 0.00 0.00 0.00 71 1016.8
20260504140930 58 219 0.0 0.0 0.00 0.00 0.00 87 1016.3
20260504130800 57 164 0.0 0.0 0.00 0.00 0.00 83 1015.8
20260504110426 59 160 0.0 0.0 0.00 0.00 0.00 80 1015.9
20260504100332 59 160 0.0 0.0 0.00 0.00 0.00 82 1015.4
20260504080758 61 109 0.0 0.0 0.00 0.00 0.00 79 1016.7